Regional Weather Roundup
Issued by NWS

Home | Current Version | Previous Version | Text Only | Print | Product List | Glossary Off
Versions: 1 2 3 4 5 6 7 8 9 10 11 12 13 14 15 16 17 18 19 20 21 22 23 24 25 26 27 28 29 30 31 32 33 34 35 36 37 38 39 40 41 42 43 44 45 46 47 48 49 50

000
ASUS43 KOAX 260910
RWRNE

WEATHER ROUNDUP FOR NEBRASKA
NATIONAL WEATHER SERVICE OMAHA NE
300 AM CST FRI DEC 26 2014

NOTES: SATELLITE DATA IS BEING USED TO AUGMENT CLOUD COVER ABOVE
       12000 FEET.
       "FAIR" INDICATES FEW OR NO CLOUDS BELOW 12,000 FEET WITH NO
       SIGNIFICANT WEATHER AND/OR OBSTRUCTIONS TO VISIBILITY.

  * THESE STATIONS DO NOT REPORT WEATHER SUCH AS RAIN...SNOW OR FOG.

NEZ001>004-019>022-054>056-261000-
NEBRASKA PANHANDLE

CITY           SKY/WX    TMP DP  RH WIND       PRES   REMARKS
SCOTTSBLUFF    CLOUDY    18  14  84 N8        29.94S WCI   8
ALLIANCE       LGT SNOW  19  17  92 N16       29.93S FOG     WCI   4
CHADRON        CLOUDY    21  17  84 NE10      30.01R WCI  10
KIMBALL        MOCLDY    13  12  95 N7        29.87R WCI   3
SIDNEY         MIX PCPN  20  17  88 N13       29.90R WCI   7
$$

NEZ057>060-069>072-079>082-261000-
SOUTHWEST NEBRASKA

CITY           SKY/WX    TMP DP  RH WIND       PRES   REMARKS
NORTH PLATTE   CLOUDY    25  21  85 N17       29.94R WCI  12
IMPERIAL       CLOUDY    25  21  85 N21       29.91R WCI  11
LEXINGTON      CLOUDY    28  24  87 N20G26    29.91R WCI  14
MCCOOK         CLOUDY    28  23  81 N21G33    29.85F WCI  15
OGALLALA       CLOUDY    25  21  85 N16G22    29.92R WCI  12
$$

NEZ005>010-023>029-035>040-094-261000-
NORTH CENTRAL NEBRASKA

CITY           SKY/WX    TMP DP  RH WIND       PRES   REMARKS
VALENTINE      LGT SNOW  23  20  88 N10       29.99R FOG     WCI  12
AINSWORTH      CLOUDY    23  21  91 N15       29.96R WCI  10
BROKEN BOW     CLOUDY    26  22  84 N20       29.92R WCI  12
O`NEILL        CLOUDY    26  26  99 N13       29.96R FOG     WCI  15
ORD            CLOUDY    26  22  84 N17G29    29.92R WCI  13
THEDFORD       CLOUDY    25  22  89 N12G23    29.96R WCI  14
$$

NEZ041-046>049-061>064-073>077-083>087-261000-
SOUTH CENTRAL NEBRASKA

CITY           SKY/WX    TMP DP  RH WIND       PRES   REMARKS
GRAND ISLAND   CLOUDY    28  26  92 N16       29.90R WCI  16
AURORA         CLOUDY    30  30  99 N21       29.87R WCI  17
HASTINGS       CLOUDY    29  26  89 N20G26    29.87R WCI  16
HEBRON         CLOUDY    33  30  89 N15       29.83R WCI  23
HOLDREGE       CLOUDY    28  25  88 N20       29.88R WCI  15
KEARNEY *      CLOUDY    28  25  86 NW17      29.90R WCI  16
YORK           CLOUDY    32  32 100 N15G24    29.85R FOG     WCI  22
$$

NEZ011>018-030>034-042>045-261000-
NORTHEAST NEBRASKA

CITY           SKY/WX    TMP DP  RH WIND       PRES   REMARKS
NORFOLK        CLOUDY    30  27  88 N17G24    29.88R WCI  18
ALBION         CLOUDY    28  25  87 N18G26    29.89R WCI  15
BLAIR          CLOUDY    33  32  94 N24       29.81R FOG     WCI  21
COLUMBUS *     CLOUDY    30  25  80 N12G21    29.88R WCI  21
FREMONT        CLOUDY    34  32  93 N12G17    29.84R WCI  26
TEKAMAH        CLOUDY    34  31  88 N18       29.84R WCI  23
WAYNE          CLOUDY    31  28  90 N16G24    29.88R WCI  20
$$

NEZ050>053-065>068-078-088>093-261000-
SOUTHEAST NEBRASKA

CITY           SKY/WX    TMP DP  RH WIND       PRES   REMARKS
LINCOLN        CLOUDY    33  31  92 N16       29.85R WCI  23
OMAHA EPPLEY   CLOUDY    33  31  92 N16G25    29.83R WCI  23
BEATRICE       CLOUDY    32  31  96 N13       29.81R FOG     WCI  22
FALLS CITY     CLEAR     36  29  75 S8        29.79R WCI  30
NEBRASKA CITY  CLEAR     32  28  84 NW10      29.80R WCI  24
PLATTSMOUTH    MOCLDY    31  29  92 NW10      29.81R WCI  22
$$

NEZ044-045-051>053-067-261000-
OMAHA AREA

CITY           SKY/WX    TMP DP  RH WIND       PRES   REMARKS
OMAHA EPPLEY   CLOUDY    33  31  92 N16G25    29.83R WCI  23
BLAIR          CLOUDY    33  32  94 N24       29.81R FOG     WCI  21
FREMONT        CLOUDY    34  32  93 N12G17    29.84R WCI  26
MILLARD        CLOUDY    33  31  93 N6G16     29.83R WCI  28
OFFUTT AFB     CLOUDY    32  32 100 N10       29.82R WCI  24
PLATTSMOUTH    MOCLDY    31  29  92 NW10      29.81R WCI  22
WAHOO          CLOUDY    33  31  90 N24       29.83R WCI  21
$$



USA.gov is the U.S. government's official web portal to all federal, state and local government web resources and services.